timestamp,wind_dir_avg,wind_spd_max_dir,wind_spd_avg,wind_spd_gust,battery_voltage,lat,long
2018-07-01 00:00:00+00:00,224.0,229.0,7.82,8.68,,47.59359,-54.27349
2018-07-01 00:10:00+00:00,221.0,220.0,7.17,7.85,,47.59359,-54.27349
2018-07-01 00:20:00+00:00,217.0,218.0,7.06,7.55,,47.59359,-54.27349
2018-07-01 00:30:00+00:00,218.0,218.0,7.62,8.23,,47.59359,-54.27349
2018-07-01 00:40:00+00:00,226.0,225.0,7.38,7.94,,47.59359,-54.27349
2018-07-01 00:50:00+00:00,223.0,223.0,8.52,9.34,,47.59359,-54.27349
2018-07-01 01:00:00+00:00,225.0,224.0,8.27,9.05,,47.59359,-54.27349
2018-07-01 01:10:00+00:00,223.0,222.0,7.24,8.13,,47.59359,-54.27349
2018-07-01 01:20:00+00:00,219.0,219.0,6.88,7.97,,47.59359,-54.27349
2018-07-01 01:30:00+00:00,217.0,219.0,6.63,6.98,,47.59359,-54.27349
2018-07-01 01:40:00+00:00,226.0,228.0,5.93,6.24,,47.59359,-54.27349
2018-07-01 01:50:00+00:00,230.0,230.0,5.99,6.76,,47.59359,-54.27349
2018-07-01 02:00:00+00:00,224.0,221.0,4.88,5.18,,47.59359,-54.27349
2018-07-01 02:10:00+00:00,230.0,229.0,5.83,6.52,,47.59359,-54.27349
2018-07-01 02:20:00+00:00,222.0,221.0,4.36,4.84,,47.59359,-54.27349
2018-07-01 02:30:00+00:00,217.0,217.0,4.77,5.31,,47.59359,-54.27349
2018-07-01 02:40:00+00:00,190.0,193.0,4.77,5.29,,47.59359,-54.27349
2018-07-01 02:50:00+00:00,214.0,218.0,4.05,4.5,,47.59359,-54.27349
2018-07-01 03:00:00+00:00,227.0,229.0,4.63,5.14,,47.59359,-54.27349
2018-07-01 03:10:00+00:00,240.0,241.0,4.25,5.02,,47.59359,-54.27349
2018-07-01 03:20:00+00:00,231.0,230.0,3.65,4.01,,47.59359,-54.27349
2018-07-01 03:30:00+00:00,260.0,272.0,1.12,1.65,,47.59359,-54.27349
2018-07-01 03:40:00+00:00,270.0,269.0,0.97,1.22,,47.59359,-54.27349
2018-07-01 03:50:00+00:00,199.0,198.0,2.36,2.56,,47.59359,-54.27349
2018-07-01 04:00:00+00:00,219.0,221.0,1.86,2.0,,47.59359,-54.27349
2018-07-01 04:10:00+00:00,195.0,192.0,2.69,2.94,,47.59359,-54.27349
2018-07-01 04:20:00+00:00,188.0,191.0,4.3,4.5,,47.59359,-54.27349
2018-07-01 04:30:00+00:00,210.0,208.0,4.27,4.92,,47.59359,-54.27349
2018-07-01 04:40:00+00:00,238.0,236.0,2.25,2.72,,47.59359,-54.27349
2018-07-01 04:50:00+00:00,233.0,234.0,1.68,1.94,,47.59359,-54.27349
2018-07-01 05:00:00+00:00,222.0,224.0,2.33,2.57,,47.59359,-54.27349
2018-07-01 05:10:00+00:00,222.0,226.0,2.58,2.81,,47.59359,-54.27349
2018-07-01 05:20:00+00:00,253.0,251.0,0.7,0.92,,47.59359,-54.27349
2018-07-01 05:30:00+00:00,119.0,111.0,0.47,0.6,,47.59359,-54.27349
2018-07-01 05:40:00+00:00,159.0,151.0,0.95,1.12,,47.59359,-54.27349
2018-07-01 05:50:00+00:00,140.0,133.0,1.51,1.71,,47.59359,-54.27349
2018-07-01 06:00:00+00:00,124.0,128.0,0.85,1.03,,47.59359,-54.27349
2018-07-01 06:10:00+00:00,133.0,133.0,1.88,2.01,,47.59359,-54.27349
2018-07-01 06:20:00+00:00,63.0,59.0,1.76,1.94,,47.59359,-54.27349
2018-07-01 06:30:00+00:00,76.0,80.0,1.45,1.75,,47.59359,-54.27349
2018-07-01 06:40:00+00:00,48.0,50.0,1.57,1.8,,47.59359,-54.27349
2018-07-01 06:50:00+00:00,28.0,27.0,3.2,3.56,,47.59359,-54.27349
2018-07-01 07:00:00+00:00,27.0,30.0,4.31,4.63,,47.59359,-54.27349
2018-07-01 07:10:00+00:00,37.0,41.0,2.42,2.77,,47.59359,-54.27349
2018-07-01 07:20:00+00:00,51.0,52.0,1.98,2.04,,47.59359,-54.27349
2018-07-01 10:20:00+00:00,52.0,53.0,2.5,2.66,,47.59359,-54.27349
2018-07-01 13:10:00+00:00,75.0,75.0,5.9,6.46,,47.59359,-54.27349
2018-07-01 13:20:00+00:00,81.0,84.0,8.02,10.9,,47.59359,-54.27349
2018-07-01 13:30:00+00:00,93.0,95.0,5.59,11.81,,47.59359,-54.27349
2018-07-01 13:40:00+00:00,80.0,81.0,4.73,5.46,,47.59359,-54.27349
2018-07-01 13:50:00+00:00,95.0,93.0,4.1,5.35,,47.59359,-54.27349
2018-07-01 14:00:00+00:00,87.0,84.0,4.82,5.91,,47.59359,-54.27349
2018-07-01 14:10:00+00:00,87.0,85.0,4.37,5.13,,47.59359,-54.27349
2018-07-01 14:20:00+00:00,108.0,108.0,5.21,7.58,,47.59359,-54.27349
2018-07-01 14:30:00+00:00,93.0,82.0,4.23,5.64,,47.59359,-54.27349
2018-07-01 14:40:00+00:00,124.0,129.0,5.16,7.14,,47.59359,-54.27349
2018-07-01 14:50:00+00:00,114.0,111.0,2.71,5.13,,47.59359,-54.27349
2018-07-01 15:00:00+00:00,99.0,91.0,3.04,5.17,,47.59359,-54.27349
2018-07-01 15:10:00+00:00,94.0,87.0,2.53,3.18,,47.59359,-54.27349
2018-07-01 15:20:00+00:00,123.0,126.0,1.46,1.59,,47.59359,-54.27349
2018-07-01 15:30:00+00:00,51.0,75.0,0.76,0.92,,47.59359,-54.27349
2018-07-01 15:40:00+00:00,352.0,358.0,0.79,0.9,,47.59359,-54.27349
2018-07-01 15:50:00+00:00,298.0,282.0,0.25,0.32,,47.59359,-54.27349
2018-07-01 16:00:00+00:00,11.0,10.0,2.84,3.08,,47.59359,-54.27349
2018-07-01 16:10:00+00:00,32.0,32.0,2.97,3.33,,47.59359,-54.27349
2018-07-01 16:20:00+00:00,30.0,32.0,2.17,2.32,,47.59359,-54.27349
2018-07-01 16:30:00+00:00,58.0,59.0,2.91,3.06,,47.59359,-54.27349
2018-07-01 16:40:00+00:00,67.0,70.0,3.43,3.53,,47.59359,-54.27349
2018-07-01 16:50:00+00:00,52.0,53.0,3.59,3.7,,47.59359,-54.27349
2018-07-01 17:00:00+00:00,58.0,57.0,3.55,3.67,,47.59359,-54.27349
2018-07-01 17:10:00+00:00,16.0,17.0,3.87,4.04,,47.59359,-54.27349
2018-07-01 17:20:00+00:00,18.0,17.0,3.52,3.81,,47.59359,-54.27349
2018-07-01 17:30:00+00:00,17.0,20.0,3.43,4.17,,47.59359,-54.27349
2018-07-01 17:40:00+00:00,29.0,24.0,3.01,3.5,,47.59359,-54.27349
2018-07-01 17:50:00+00:00,41.0,41.0,2.36,2.59,,47.59359,-54.27349
2018-07-01 18:00:00+00:00,11.0,10.0,3.62,3.73,,47.59359,-54.27349
2018-07-01 18:10:00+00:00,16.0,17.0,3.76,3.92,,47.59359,-54.27349
2018-07-01 18:20:00+00:00,33.0,35.0,2.49,2.71,,47.59359,-54.27349
2018-07-01 18:30:00+00:00,47.0,47.0,3.01,3.13,,47.59359,-54.27349
2018-07-01 18:40:00+00:00,36.0,36.0,2.86,3.01,,47.59359,-54.27349
2018-07-01 18:50:00+00:00,38.0,39.0,2.12,2.2,,47.59359,-54.27349
2018-07-01 19:00:00+00:00,43.0,42.0,2.05,2.15,,47.59359,-54.27349
2018-07-01 19:10:00+00:00,45.0,43.0,2.57,2.69,,47.59359,-54.27349
2018-07-01 19:20:00+00:00,53.0,53.0,2.82,3.09,,47.59359,-54.27349
2018-07-01 19:30:00+00:00,56.0,57.0,2.74,2.88,,47.59359,-54.27349
2018-07-01 19:40:00+00:00,51.0,53.0,2.5,2.75,,47.59359,-54.27349
2018-07-01 19:50:00+00:00,54.0,54.0,1.95,2.12,,47.59359,-54.27349
2018-07-01 20:00:00+00:00,56.0,57.0,1.77,1.81,,47.59359,-54.27349
2018-07-01 20:10:00+00:00,73.0,73.0,1.55,1.65,,47.59359,-54.27349
2018-07-01 20:20:00+00:00,118.0,121.0,0.62,1.08,,47.59359,-54.27349
2018-07-01 20:30:00+00:00,22.0,54.0,0.23,0.54,,47.59359,-54.27349
2018-07-01 20:40:00+00:00,110.0,106.0,0.9,1.34,,47.59359,-54.27349
2018-07-01 20:50:00+00:00,113.0,72.0,0.19,0.4,,47.59359,-54.27349
2018-07-01 21:00:00+00:00,57.0,58.0,1.08,1.25,,47.59359,-54.27349
2018-07-01 21:10:00+00:00,293.0,293.0,1.04,1.12,,47.59359,-54.27349
2018-07-01 21:20:00+00:00,310.0,305.0,0.99,1.22,,47.59359,-54.27349
2018-07-01 21:30:00+00:00,304.0,301.0,1.06,1.38,,47.59359,-54.27349
2018-07-01 21:40:00+00:00,309.0,309.0,1.41,1.5,,47.59359,-54.27349
2018-07-01 21:50:00+00:00,321.0,323.0,0.47,0.55,,47.59359,-54.27349
2018-07-01 22:00:00+00:00,250.0,243.0,0.85,0.99,,47.59359,-54.27349
2018-07-01 22:10:00+00:00,211.0,215.0,1.02,1.17,,47.59359,-54.27349
2018-07-01 22:20:00+00:00,193.0,194.0,1.97,2.05,,47.59359,-54.27349
2018-07-01 22:30:00+00:00,205.0,209.0,1.69,1.76,,47.59359,-54.27349
2018-07-01 22:40:00+00:00,258.0,260.0,1.67,1.84,,47.59359,-54.27349
2018-07-01 22:50:00+00:00,248.0,248.0,1.33,1.41,,47.59359,-54.27349
2018-07-01 23:00:00+00:00,277.0,279.0,0.55,0.65,,47.59359,-54.27349
2018-07-01 23:10:00+00:00,323.0,323.0,0.73,1.01,,47.59359,-54.27349
2018-07-01 23:20:00+00:00,236.0,243.0,0.59,0.65,,47.59359,-54.27349
2018-07-01 23:30:00+00:00,237.0,247.0,0.54,0.68,,47.59359,-54.27349
2018-07-01 23:40:00+00:00,355.0,358.0,0.76,0.88,,47.59359,-54.27349
2018-07-01 23:50:00+00:00,28.0,29.0,1.63,1.72,,47.59359,-54.27349
